Home > Weather > Bridgetown > Past weeks

Flag for Barbados Past Weather in Bridgetown, Barbados — Yesterday and Last 2 Weeks

Now
81 °F

Passing clouds.


Feels Like: 86 °F
Forecast: N/A
Wind: 17 mph from East

Location: Grantley Adams

Current Time: Jun 24, 2016 at 7:58:20 PM

Latest Report: Jun 24, 2016 at 7:00 PM


Visibility: N/A

Pressure: 29.95 "Hg

Humidity: 84%

Dew Point: 75 °F

Location of BridgetownLocation

Past Weather in Bridgetown — Graph

°F

Bridgetown Temperature Yesterday

Maximum temperature yesterday: 86 °F (at 11:00 AM)
Minimum temperature yesterday: 77 °F (at 5:00 PM)
Average temperature yesterday: 81 °F

High & Low Weather Summary for the Past Weeks

 TemperatureHumidityPressure
High88 °F (Jun 13, 2:00 PM)100% (Jun 19, 11:00 AM)30.12 "Hg (Jun 19, 11:00 AM)
Low75 °F (Jun 19, 11:00 AM)62% (Jun 15, 11:00 AM)29.86 "Hg (Jun 11, 1:00 PM)
Average82 °F78%30.03 "Hg
* Reported Jun 9 6:00 PM — Jun 24 6:00 PM, Bridgetown, Weather by CustomWeather, © 2016

Note: Actual official high and low records may vary slightly from our data, if they occured in-between our weather recording intervals... More about our weather records

Advertising

Bridgetown Weather History for the Previous 24 Hours

Scroll right to see more
 ConditionsComfort  
Time TempWeatherWind HumidityBarometerVisibility
6:00 PM
Fri, Jun 24
82 °FScattered clouds.18 mph79%29.95 "HgN/A
5:00 PM84 °FBroken clouds.18 mph74%29.95 "HgN/A
4:00 PM84 °FBroken clouds.18 mph79%29.92 "HgN/A
3:00 PM84 °FBroken clouds.21 mph74%29.95 "HgN/A
2:00 PM86 °FBroken clouds.21 mph75%29.98 "HgN/A
1:00 PM86 °FBroken clouds.23 mph70%30.01 "HgN/A
12:00 PM86 °FPartly sunny.20 mph75%30.01 "HgN/A
11:00 AM84 °FPartly sunny.21 mph79%30.01 "HgN/A
10:00 AM84 °FBroken clouds.21 mph74%30.01 "HgN/A
9:00 AM84 °FBroken clouds.18 mph79%30.01 "HgN/A
8:00 AM82 °FBroken clouds.17 mph79%30.01 "HgN/A
7:00 AM81 °FPartly sunny.18 mph84%30.01 "HgN/A
6:00 AM81 °FBroken clouds.18 mph79%29.98 "HgN/A
5:00 AM81 °FPartly cloudy.20 mph79%29.98 "HgN/A
4:00 AM81 °FPartly cloudy.21 mph84%29.98 "HgN/A
3:00 AM79 °FPartly cloudy.17 mph89%29.98 "HgN/A
2:00 AM81 °FPassing clouds.22 mph84%29.98 "HgN/A
1:00 AM81 °FPartly cloudy.17 mph84%30.01 "HgN/A
12:00 AM79 °FPartly cloudy.17 mph89%30.04 "HgN/A
11:00 PM
Thu, Jun 23
79 °FPassing clouds.16 mph89%30.04 "HgN/A
10:00 PM81 °FPartly cloudy.21 mph84%30.04 "HgN/A
9:00 PM79 °FPartly cloudy.18 mph89%30.01 "HgN/A
8:00 PM81 °FPassing clouds.17 mph89%30.01 "HgN/A
7:00 PM79 °FScattered showers. Passing clouds.18 mph89%29.98 "HgN/A
Weather by CustomWeather, © 2016

See weather overviewHow to use our weather pages